Location: Rounton
(54.4000°N, 1.3500°W)
Time: 22:21:03
(UTC+00:00)

Vanguard 1 - Pass Details

Date: 05 December 2021
Orbit: 652 x 3830 km, 34.2° (Epoch: 16 January)

Event Time Altitude Azimuth Distance (km) Brightness Sun altitude
Rises 03:11:35 0° 260° (W) 7,898 - -41.6°
Reaches altitude 10° 03:17:33 10° 254° (WSW) 6,936 - -40.8°
Exits shadow 03:35:44 37° 204° (SSW) 4,556 13.0 -38.2°
Maximum altitude 03:37:06 38° 197° (SSW) 4,472 13.0 -38.0°
Drops below altitude 10° 03:51:36 10° 138° (SE) 5,198 14.0 -36.0°
Sets 03:55:17 0° 130° (SE) 5,815 14.5 -35.5°
